FREGAT R/B (43688 NORAD) Tracking and Keplerian Element Data

This shows tracking and keplerian element data for the satellite.

Feedback or suggestion? Click here.




ElementValue
Catalog43688
NameFREGAT R/B
Epoch Orbit0
Epoch Day308.0709362
Epoch Year2018
RAAN287.4207
Inclination64.7976
Eccentricity0.0068232
Argument of Perigee57.1904
Mean Anonmoly62.9464
Mean Motion2.10631562
Decay Rate-1E-07
L11 43688U 18086B 18308.07093620 -.00000010 00000-0 00000+0 0 9990
L22 43688 64.7976 287.4207 0068232 57.1904 62.9464 2.10631562 04

Live tracking and technical data element details for FREGAT R/B (NORAD 43688). FREGAT R/B can be tracked NOW for your location showing map with azimuth and elevation plus other details from your city location.

Track the satellite on the map from your city or location and see movement details for azimuth, elevation, latitude, longitude, range, height, and movement on the map or in text.







IsCatalogInMostPopularTable: catalog: 43688, numindb: 12
Update: records affected: 1



GetName: 43688 FREGAT R/B

Hit Count: updated at: Tue, 20 Nov 2018 11:36:13 GMT